Year,Month,Day,Hour,Minute,Value (Times are PST for windgust in km/hr)
2018,01,21,00,00,25.70
2018,01,21,00,01,19.30
2018,01,21,00,02,8.10
2018,01,21,00,03,6.40
2018,01,21,00,04,33.80
2018,01,21,00,05,27.40
2018,01,21,00,06,17.70
2018,01,21,00,07,17.70
2018,01,21,00,08,25.70
2018,01,21,00,09,25.70
2018,01,21,00,10,22.50
2018,01,21,00,11,17.70
2018,01,21,00,12,20.90
2018,01,21,00,13,25.70
2018,01,21,00,14,20.90
2018,01,21,00,15,12.90
2018,01,21,00,16,17.70
2018,01,21,00,17,29.00
2018,01,21,00,18,24.20
2018,01,21,00,19,12.90
2018,01,21,00,20,22.50
2018,01,21,00,21,19.30
2018,01,21,00,22,24.20
2018,01,21,00,23,37.00
2018,01,21,00,24,35.40
2018,01,21,00,25,16.10
2018,01,21,00,26,16.10
2018,01,21,00,27,8.10
2018,01,21,00,28,17.70
2018,01,21,00,29,22.50
2018,01,21,00,30,19.30
2018,01,21,00,31,17.70
2018,01,21,00,32,8.10
2018,01,21,00,33,8.10
2018,01,21,00,34,19.30
2018,01,21,00,35,19.30
2018,01,21,00,36,24.20
2018,01,21,00,37,11.30
2018,01,21,00,38,8.10
2018,01,21,00,39,16.10
2018,01,21,00,40,19.30
2018,01,21,00,41,14.50
2018,01,21,00,42,30.60
2018,01,21,00,43,25.70
2018,01,21,00,44,22.50
2018,01,21,00,45,22.50
2018,01,21,00,46,17.70
2018,01,21,00,47,14.50
2018,01,21,00,48,24.20
2018,01,21,00,49,12.90
2018,01,21,00,50,14.50
2018,01,21,00,51,19.30
2018,01,21,00,52,8.10
2018,01,21,00,53,17.70
2018,01,21,00,54,29.00
2018,01,21,00,55,8.10
2018,01,21,00,56,9.60
2018,01,21,00,57,20.90
2018,01,21,00,58,9.60
2018,01,21,00,59,37.00
2018,01,21,01,00,29.00
2018,01,21,01,01,19.30
2018,01,21,01,02,12.90
2018,01,21,01,03,14.50
2018,01,21,01,04,17.70
2018,01,21,01,05,19.30
2018,01,21,01,06,30.60
2018,01,21,01,07,20.90
2018,01,21,01,08,17.70
2018,01,21,01,09,17.70
2018,01,21,01,10,24.20
2018,01,21,01,11,30.60
2018,01,21,01,12,12.90
2018,01,21,01,13,9.60
2018,01,21,01,14,6.40
2018,01,21,01,15,12.90
2018,01,21,01,16,6.40
2018,01,21,01,17,24.20
2018,01,21,01,18,16.10
2018,01,21,01,19,11.30
2018,01,21,01,20,24.20
2018,01,21,01,21,22.50
2018,01,21,01,22,20.90
2018,01,21,01,23,20.90
2018,01,21,01,24,8.10
2018,01,21,01,25,22.50
2018,01,21,01,26,6.40
2018,01,21,01,27,6.40
2018,01,21,01,28,16.10
2018,01,21,01,29,22.50
2018,01,21,01,30,29.00
2018,01,21,01,31,12.90
2018,01,21,01,32,27.40
2018,01,21,01,33,16.10
2018,01,21,01,34,11.30
2018,01,21,01,35,8.10
2018,01,21,01,36,9.60
2018,01,21,01,37,4.80
2018,01,21,01,38,12.90
2018,01,21,01,39,17.70
2018,01,21,01,40,25.70
2018,01,21,01,41,20.90
2018,01,21,01,42,11.30
2018,01,21,01,43,19.30
2018,01,21,01,44,16.10
2018,01,21,01,45,30.60
2018,01,21,01,46,20.90
2018,01,21,01,47,24.20
2018,01,21,01,48,22.50
2018,01,21,01,49,17.70
2018,01,21,01,50,19.30
2018,01,21,01,51,19.30
2018,01,21,01,52,30.60
2018,01,21,01,53,25.70
2018,01,21,01,54,16.10
2018,01,21,01,55,19.30
2018,01,21,01,56,12.90
2018,01,21,01,57,19.30
2018,01,21,01,58,14.50
2018,01,21,01,59,17.70
2018,01,21,02,00,22.50
2018,01,21,02,01,11.30
2018,01,21,02,02,11.30
2018,01,21,02,03,14.50
2018,01,21,02,04,19.30
2018,01,21,02,05,22.50
2018,01,21,02,06,16.10
2018,01,21,02,07,14.50
2018,01,21,02,08,11.30
2018,01,21,02,09,24.20
2018,01,21,02,10,14.50
2018,01,21,02,11,12.90
2018,01,21,02,12,8.10
2018,01,21,02,13,22.50
2018,01,21,02,14,29.00
2018,01,21,02,15,30.60
2018,01,21,02,16,29.00
2018,01,21,02,17,8.10
2018,01,21,02,18,9.60
2018,01,21,02,19,29.00
2018,01,21,02,20,35.40
2018,01,21,02,21,29.00
2018,01,21,02,22,22.50
2018,01,21,02,23,29.00
2018,01,21,02,24,12.90
2018,01,21,02,25,11.30
2018,01,21,02,26,17.70
2018,01,21,02,27,17.70
2018,01,21,02,28,22.50
2018,01,21,02,29,30.60
2018,01,21,02,30,22.50
2018,01,21,02,31,25.70
2018,01,21,02,32,14.50
2018,01,21,02,33,14.50
2018,01,21,02,34,33.80
2018,01,21,02,35,14.50
2018,01,21,02,36,17.70
2018,01,21,02,37,37.00
2018,01,21,02,38,27.40
2018,01,21,02,39,17.70
2018,01,21,02,40,17.70
2018,01,21,02,41,38.60
2018,01,21,02,42,25.70
2018,01,21,02,43,27.40
2018,01,21,02,44,20.90
2018,01,21,02,45,19.30
2018,01,21,02,46,8.10
2018,01,21,02,47,22.50
2018,01,21,02,48,25.70
2018,01,21,02,49,11.30
2018,01,21,02,50,20.90
2018,01,21,02,51,6.40
2018,01,21,02,52,38.60
2018,01,21,02,53,19.30
2018,01,21,02,54,20.90
2018,01,21,02,55,22.50
2018,01,21,02,56,6.40
2018,01,21,02,57,20.90
2018,01,21,02,58,16.10
2018,01,21,02,59,11.30
2018,01,21,03,00,20.90
2018,01,21,03,01,19.30
2018,01,21,03,02,16.10
2018,01,21,03,03,14.50
2018,01,21,03,04,24.20
2018,01,21,03,05,25.70
2018,01,21,03,06,14.50
2018,01,21,03,07,22.50
2018,01,21,03,08,20.90
2018,01,21,03,09,14.50
2018,01,21,03,10,17.70
2018,01,21,03,11,8.10
2018,01,21,03,12,16.10
2018,01,21,03,13,22.50
2018,01,21,03,14,16.10
2018,01,21,03,15,6.40
2018,01,21,03,16,9.60
2018,01,21,03,17,12.90
2018,01,21,03,18,20.90
2018,01,21,03,19,14.50
2018,01,21,03,20,12.90
2018,01,21,03,21,9.60
2018,01,21,03,22,14.50
2018,01,21,03,23,11.30
2018,01,21,03,24,11.30
2018,01,21,03,25,32.20
2018,01,21,03,26,11.30
2018,01,21,03,27,12.90
2018,01,21,03,28,16.10
2018,01,21,03,29,8.10
2018,01,21,03,30,9.60
2018,01,21,03,31,12.90
2018,01,21,03,32,33.80
2018,01,21,03,33,25.70
2018,01,21,03,34,24.20
2018,01,21,03,35,24.20
2018,01,21,03,36,27.40
2018,01,21,03,37,6.40
2018,01,21,03,38,22.50
2018,01,21,03,39,20.90
2018,01,21,03,40,12.90
2018,01,21,03,41,19.30
2018,01,21,03,42,14.50
2018,01,21,03,43,20.90
2018,01,21,03,44,8.10
2018,01,21,03,45,17.70
2018,01,21,03,46,12.90
2018,01,21,03,47,22.50
2018,01,21,03,48,12.90
2018,01,21,03,49,17.70
2018,01,21,03,50,30.60
2018,01,21,03,51,9.60
2018,01,21,03,52,14.50
2018,01,21,03,53,20.90
2018,01,21,03,54,25.70
2018,01,21,03,55,25.70
2018,01,21,03,56,22.50
2018,01,21,03,57,16.10
2018,01,21,03,58,11.30
2018,01,21,03,59,12.90
2018,01,21,04,00,17.70
2018,01,21,04,01,16.10
2018,01,21,04,02,16.10
2018,01,21,04,03,12.90
2018,01,21,04,04,29.00
2018,01,21,04,05,20.90
2018,01,21,04,06,17.70
2018,01,21,04,07,20.90
2018,01,21,04,08,20.90
2018,01,21,04,09,16.10
2018,01,21,04,10,14.50
2018,01,21,04,11,20.90
2018,01,21,04,12,29.00
2018,01,21,04,13,12.90
2018,01,21,04,14,16.10
2018,01,21,04,15,25.70
2018,01,21,04,16,12.90
2018,01,21,04,17,14.50
2018,01,21,04,18,20.90
2018,01,21,04,19,20.90
2018,01,21,04,20,19.30
2018,01,21,04,21,14.50
2018,01,21,04,22,16.10
2018,01,21,04,23,24.20
2018,01,21,04,24,20.90
2018,01,21,04,25,35.40
2018,01,21,04,26,27.40
2018,01,21,04,27,11.30
2018,01,21,04,28,17.70
2018,01,21,04,29,12.90
2018,01,21,04,30,20.90
2018,01,21,04,31,24.20
2018,01,21,04,32,19.30
2018,01,21,04,33,11.30
2018,01,21,04,34,12.90
2018,01,21,04,35,16.10
2018,01,21,04,36,20.90
2018,01,21,04,37,30.60
2018,01,21,04,38,16.10
2018,01,21,04,39,11.30
2018,01,21,04,40,12.90
2018,01,21,04,41,12.90
2018,01,21,04,42,17.70
2018,01,21,04,43,11.30
2018,01,21,04,44,29.00
2018,01,21,04,45,20.90
2018,01,21,04,46,14.50
2018,01,21,04,47,16.10
2018,01,21,04,48,19.30
2018,01,21,04,49,27.40
2018,01,21,04,50,16.10
2018,01,21,04,51,14.50
2018,01,21,04,52,20.90
2018,01,21,04,53,12.90
2018,01,21,04,54,16.10
2018,01,21,04,55,24.20
2018,01,21,04,56,14.50
2018,01,21,04,57,20.90
2018,01,21,04,58,14.50
2018,01,21,04,59,14.50
2018,01,21,05,00,17.70
2018,01,21,05,01,14.50
2018,01,21,05,02,12.90
2018,01,21,05,03,14.50
2018,01,21,05,04,25.70
2018,01,21,05,05,30.60
2018,01,21,05,06,14.50
2018,01,21,05,07,22.50
2018,01,21,05,08,22.50
2018,01,21,05,09,20.90
2018,01,21,05,10,22.50
2018,01,21,05,11,16.10
2018,01,21,05,12,17.70
2018,01,21,05,13,22.50
2018,01,21,05,14,37.00
2018,01,21,05,15,19.30
2018,01,21,05,16,27.40
2018,01,21,05,17,14.50
2018,01,21,05,18,19.30
2018,01,21,05,19,19.30
2018,01,21,05,20,16.10
2018,01,21,05,21,11.30
2018,01,21,05,22,12.90
2018,01,21,05,23,16.10
2018,01,21,05,24,12.90
2018,01,21,05,25,14.50
2018,01,21,05,26,12.90
2018,01,21,05,27,14.50
2018,01,21,05,28,30.60
2018,01,21,05,29,20.90
2018,01,21,05,30,19.30
2018,01,21,05,31,12.90
2018,01,21,05,32,19.30
2018,01,21,05,33,19.30
2018,01,21,05,34,8.10
2018,01,21,05,35,27.40
2018,01,21,05,36,8.10
2018,01,21,05,37,12.90
2018,01,21,05,38,17.70
2018,01,21,05,39,25.70
2018,01,21,05,40,16.10
2018,01,21,05,41,19.30
2018,01,21,05,42,20.90
2018,01,21,05,43,17.70
2018,01,21,05,44,19.30
2018,01,21,05,45,30.60
2018,01,21,05,46,12.90
2018,01,21,05,47,24.20
2018,01,21,05,48,17.70
2018,01,21,05,49,16.10
2018,01,21,05,50,19.30
2018,01,21,05,51,19.30
2018,01,21,05,52,17.70
2018,01,21,05,53,29.00
2018,01,21,05,54,37.00
2018,01,21,05,55,22.50
2018,01,21,05,56,16.10
2018,01,21,05,57,16.10
2018,01,21,05,58,16.10
2018,01,21,05,59,9.60
2018,01,21,06,00,22.50
2018,01,21,06,01,33.80
2018,01,21,06,02,17.70
2018,01,21,06,03,8.10
2018,01,21,06,04,27.40
2018,01,21,06,05,16.10
2018,01,21,06,06,20.90
2018,01,21,06,07,43.50
2018,01,21,06,08,45.10
2018,01,21,06,09,20.90
2018,01,21,06,10,12.90
2018,01,21,06,11,17.70
2018,01,21,06,12,25.70
2018,01,21,06,13,19.30
2018,01,21,06,14,9.60
2018,01,21,06,15,14.50
2018,01,21,06,16,12.90
2018,01,21,06,17,16.10
2018,01,21,06,18,8.10
2018,01,21,06,19,30.60
2018,01,21,06,20,54.70
2018,01,21,06,21,12.90
2018,01,21,06,22,14.50
2018,01,21,06,23,22.50
2018,01,21,06,24,19.30
2018,01,21,06,25,20.90
2018,01,21,06,26,14.50
2018,01,21,06,27,11.30
2018,01,21,06,28,16.10
2018,01,21,06,29,29.00
2018,01,21,06,30,22.50
2018,01,21,06,31,12.90
2018,01,21,06,32,17.70
2018,01,21,06,33,22.50
2018,01,21,06,34,12.90
2018,01,21,06,35,14.50
2018,01,21,06,36,14.50
2018,01,21,06,37,11.30
2018,01,21,06,38,14.50
2018,01,21,06,39,11.30
2018,01,21,06,40,24.20
2018,01,21,06,41,22.50
2018,01,21,06,42,9.60
2018,01,21,06,43,24.20
2018,01,21,06,44,27.40
2018,01,21,06,45,24.20
2018,01,21,06,46,19.30
2018,01,21,06,47,24.20
2018,01,21,06,48,25.70
2018,01,21,06,49,17.70
2018,01,21,06,50,14.50
2018,01,21,06,51,17.70
2018,01,21,06,52,38.60
2018,01,21,06,53,27.40
2018,01,21,06,54,16.10
2018,01,21,06,55,20.90
2018,01,21,06,56,20.90
2018,01,21,06,57,9.60
2018,01,21,06,58,9.60
2018,01,21,06,59,19.30
2018,01,21,07,00,24.20
2018,01,21,07,01,25.70
2018,01,21,07,02,20.90
2018,01,21,07,03,20.90
2018,01,21,07,04,17.70
2018,01,21,07,05,9.60
2018,01,21,07,06,20.90
2018,01,21,07,07,25.70
2018,01,21,07,08,27.40
2018,01,21,07,09,24.20
2018,01,21,07,10,17.70
2018,01,21,07,11,20.90
2018,01,21,07,12,22.50
2018,01,21,07,13,16.10
2018,01,21,07,14,12.90
2018,01,21,07,15,25.70
2018,01,21,07,16,11.30
2018,01,21,07,17,29.00
2018,01,21,07,18,30.60
2018,01,21,07,19,16.10
2018,01,21,07,20,24.20
2018,01,21,07,21,25.70
2018,01,21,07,22,33.80
2018,01,21,07,23,20.90
2018,01,21,07,24,27.40
2018,01,21,07,25,9.60
2018,01,21,07,26,12.90
2018,01,21,07,27,9.60
2018,01,21,07,28,12.90
2018,01,21,07,29,17.70
2018,01,21,07,30,11.30
2018,01,21,07,31,20.90
2018,01,21,07,32,17.70
2018,01,21,07,33,17.70
2018,01,21,07,34,22.50
2018,01,21,07,35,11.30
2018,01,21,07,36,6.40
2018,01,21,07,37,8.10
2018,01,21,07,38,9.60
2018,01,21,07,39,9.60
2018,01,21,07,40,8.10
2018,01,21,07,41,3.20
2018,01,21,07,42,12.90
2018,01,21,07,43,11.30
2018,01,21,07,44,12.90
2018,01,21,07,45,25.70
2018,01,21,07,46,25.70
2018,01,21,07,47,6.40
2018,01,21,07,48,4.80
2018,01,21,07,49,14.50
2018,01,21,07,50,6.40
2018,01,21,07,51,6.40
2018,01,21,07,52,6.40
2018,01,21,07,53,9.60
2018,01,21,07,54,20.90
2018,01,21,07,55,8.10
2018,01,21,07,56,6.40
2018,01,21,07,57,4.80
2018,01,21,07,58,12.90
2018,01,21,07,59,9.60
2018,01,21,08,00,8.10
2018,01,21,08,01,1.60
2018,01,21,08,02,17.70
2018,01,21,08,03,19.30
2018,01,21,08,04,12.90
2018,01,21,08,05,11.30
2018,01,21,08,06,4.80
2018,01,21,08,07,3.20
2018,01,21,08,08,11.30
2018,01,21,08,09,12.90
2018,01,21,08,10,14.50
2018,01,21,08,11,12.90
2018,01,21,08,12,9.60
2018,01,21,08,13,8.10
2018,01,21,08,14,6.40
2018,01,21,08,15,8.10
2018,01,21,08,16,6.40
2018,01,21,08,17,17.70
2018,01,21,08,18,8.10
2018,01,21,08,19,6.40
2018,01,21,08,20,4.80
2018,01,21,08,21,4.80
2018,01,21,08,22,8.10
2018,01,21,08,23,12.90
2018,01,21,08,24,11.30
2018,01,21,08,25,6.40
2018,01,21,08,26,4.80
2018,01,21,08,27,11.30
2018,01,21,08,28,12.90
2018,01,21,08,29,6.40
2018,01,21,08,30,8.10
2018,01,21,08,31,9.60
2018,01,21,08,32,11.30
2018,01,21,08,33,6.40
2018,01,21,08,34,1.60
2018,01,21,08,35,11.30
2018,01,21,08,36,12.90
2018,01,21,08,37,8.10
2018,01,21,08,38,8.10
2018,01,21,08,39,8.10
2018,01,21,08,40,9.60
2018,01,21,08,41,6.40
2018,01,21,08,42,9.60
2018,01,21,08,43,8.10
2018,01,21,08,44,8.10
2018,01,21,08,45,8.10
2018,01,21,08,46,11.30
2018,01,21,08,47,6.40
2018,01,21,08,48,6.40
2018,01,21,08,49,12.90
2018,01,21,08,50,3.20
2018,01,21,08,51,4.80
2018,01,21,08,52,16.10
2018,01,21,08,53,14.50
2018,01,21,08,54,12.90
2018,01,21,08,55,8.10
2018,01,21,08,56,6.40
2018,01,21,08,57,8.10
2018,01,21,08,58,6.40
2018,01,21,08,59,8.10
2018,01,21,09,00,8.10
2018,01,21,09,01,6.40
2018,01,21,09,02,6.40
2018,01,21,09,03,6.40
2018,01,21,09,04,6.40
2018,01,21,09,05,12.90
2018,01,21,09,06,12.90
2018,01,21,09,07,9.60
2018,01,21,09,08,11.30
2018,01,21,09,09,11.30
2018,01,21,09,10,8.10
2018,01,21,09,11,11.30
2018,01,21,09,12,11.30
2018,01,21,09,13,6.40
2018,01,21,09,14,8.10
2018,01,21,09,15,3.20
2018,01,21,09,16,3.20
2018,01,21,09,17,9.60
2018,01,21,09,18,11.30
2018,01,21,09,19,16.10
2018,01,21,09,20,6.40
2018,01,21,09,21,4.80
2018,01,21,09,22,6.40
2018,01,21,09,23,6.40
2018,01,21,09,24,9.60
2018,01,21,09,25,11.30
2018,01,21,09,26,6.40
2018,01,21,09,27,4.80
2018,01,21,09,28,4.80
2018,01,21,09,29,3.20
2018,01,21,09,30,1.60
2018,01,21,09,31,3.20
2018,01,21,09,32,1.60
2018,01,21,09,33,1.60
2018,01,21,09,34,1.60
2018,01,21,09,35,3.20
2018,01,21,09,36,1.60
2018,01,21,09,37,3.20
2018,01,21,09,38,1.60
2018,01,21,09,39,1.60
2018,01,21,09,40,1.60
2018,01,21,09,42,3.20
2018,01,21,09,43,4.80
2018,01,21,09,44,3.20
2018,01,21,09,45,3.20
2018,01,21,09,46,3.20
2018,01,21,09,47,3.20
2018,01,21,09,48,3.20
2018,01,21,09,49,3.20
2018,01,21,09,50,3.20
2018,01,21,09,51,4.80
2018,01,21,09,52,8.10
2018,01,21,09,53,3.20
2018,01,21,09,54,9.60
2018,01,21,09,55,9.60
2018,01,21,09,56,6.40
2018,01,21,09,57,3.20
2018,01,21,09,58,3.20
2018,01,21,09,59,1.60
2018,01,21,10,01,3.20
2018,01,21,10,02,3.20
2018,01,21,10,03,1.60
2018,01,21,10,04,1.60
2018,01,21,10,08,3.20
2018,01,21,10,09,4.80
2018,01,21,10,10,3.20
2018,01,21,10,11,1.60
2018,01,21,10,12,3.20
2018,01,21,10,13,3.20
2018,01,21,10,14,1.60
2018,01,21,10,16,1.60
2018,01,21,10,17,1.60
2018,01,21,10,28,3.20
2018,01,21,10,29,3.20
2018,01,21,10,30,1.60
2018,01,21,10,34,1.60
2018,01,21,10,36,1.60
2018,01,21,10,39,3.20
2018,01,21,10,40,3.20
2018,01,21,10,41,3.20
2018,01,21,10,42,4.80
2018,01,21,10,43,3.20
2018,01,21,10,44,1.60
2018,01,21,10,45,1.60
2018,01,21,11,02,3.20
2018,01,21,11,03,3.20
2018,01,21,11,04,1.60
2018,01,21,11,05,1.60
2018,01,21,11,06,1.60
2018,01,21,11,07,1.60
2018,01,21,11,08,1.60
2018,01,21,11,09,1.60
2018,01,21,11,10,1.60
2018,01,21,11,11,1.60
2018,01,21,11,12,3.20
2018,01,21,11,13,3.20
2018,01,21,11,14,4.80
2018,01,21,11,15,3.20
2018,01,21,11,16,3.20
2018,01,21,11,17,1.60
2018,01,21,11,18,4.80
2018,01,21,11,19,6.40
2018,01,21,11,20,6.40
2018,01,21,11,21,3.20
2018,01,21,11,22,4.80
2018,01,21,11,23,3.20
2018,01,21,11,24,3.20
2018,01,21,11,25,3.20
2018,01,21,11,26,3.20
2018,01,21,11,27,1.60
2018,01,21,11,28,1.60
2018,01,21,11,29,3.20
2018,01,21,11,30,1.60
2018,01,21,11,31,3.20
2018,01,21,11,32,3.20
2018,01,21,11,33,3.20
2018,01,21,11,34,4.80
2018,01,21,11,35,4.80
2018,01,21,11,36,4.80
2018,01,21,11,37,4.80
2018,01,21,11,38,1.60
2018,01,21,11,40,1.60
2018,01,21,11,41,1.60
2018,01,21,11,42,3.20
2018,01,21,11,43,3.20
2018,01,21,11,44,3.20
2018,01,21,11,45,3.20
2018,01,21,11,46,4.80
2018,01,21,11,47,3.20
2018,01,21,11,48,4.80
2018,01,21,11,49,1.60
2018,01,21,11,50,1.60
2018,01,21,11,51,3.20
2018,01,21,11,52,1.60
2018,01,21,11,53,3.20
2018,01,21,11,54,4.80
2018,01,21,11,55,8.10
2018,01,21,11,56,8.10
2018,01,21,11,57,4.80
2018,01,21,11,58,3.20
2018,01,21,11,59,3.20
2018,01,21,12,00,3.20
2018,01,21,12,01,6.40
2018,01,21,12,02,6.40
2018,01,21,12,03,4.80
2018,01,21,12,04,4.80
2018,01,21,12,05,4.80
2018,01,21,12,06,6.40
2018,01,21,12,07,3.20
2018,01,21,12,08,3.20
2018,01,21,12,09,4.80
2018,01,21,12,10,4.80
2018,01,21,12,11,3.20
2018,01,21,12,12,4.80
2018,01,21,12,13,4.80
2018,01,21,12,14,4.80
2018,01,21,12,15,1.60
2018,01,21,12,17,3.20
2018,01,21,12,18,3.20
2018,01,21,12,19,3.20
2018,01,21,12,20,3.20
2018,01,21,12,21,3.20
2018,01,21,12,22,3.20
2018,01,21,12,23,1.60
2018,01,21,12,24,1.60
2018,01,21,12,25,3.20
2018,01,21,12,26,3.20
2018,01,21,12,27,1.60
2018,01,21,12,28,1.60
2018,01,21,12,29,3.20
2018,01,21,12,30,1.60
2018,01,21,12,31,3.20
2018,01,21,12,32,3.20
2018,01,21,12,33,3.20
2018,01,21,12,34,1.60
2018,01,21,12,35,1.60
2018,01,21,12,36,1.60
2018,01,21,12,40,3.20
2018,01,21,12,41,3.20
2018,01,21,12,42,3.20
2018,01,21,12,43,4.80
2018,01,21,12,44,9.60
2018,01,21,12,45,6.40
2018,01,21,12,46,3.20
2018,01,21,12,47,6.40
2018,01,21,12,48,8.10
2018,01,21,12,49,3.20
2018,01,21,12,50,4.80
2018,01,21,12,51,6.40
2018,01,21,12,52,4.80
2018,01,21,12,53,4.80
2018,01,21,12,54,6.40
2018,01,21,12,55,11.30
2018,01,21,12,56,9.60
2018,01,21,12,57,8.10
2018,01,21,12,58,4.80
2018,01,21,12,59,4.80
2018,01,21,13,00,4.80
2018,01,21,13,01,6.40
2018,01,21,13,02,3.20
2018,01,21,13,03,4.80
2018,01,21,13,04,3.20
2018,01,21,13,05,3.20
2018,01,21,13,06,6.40
2018,01,21,13,07,8.10
2018,01,21,13,08,4.80
2018,01,21,13,09,6.40
2018,01,21,13,10,6.40
2018,01,21,13,11,6.40
2018,01,21,13,12,8.10
2018,01,21,13,13,6.40
2018,01,21,13,14,6.40
2018,01,21,13,15,4.80
2018,01,21,13,16,4.80
2018,01,21,13,17,4.80
2018,01,21,13,18,3.20
2018,01,21,13,19,3.20
2018,01,21,13,20,4.80
2018,01,21,13,21,1.60
2018,01,21,13,22,3.20
2018,01,21,13,23,6.40
2018,01,21,13,24,11.30
2018,01,21,13,25,14.50
2018,01,21,13,26,12.90
2018,01,21,13,27,6.40
2018,01,21,13,28,3.20
2018,01,21,13,29,3.20
2018,01,21,13,30,3.20
2018,01,21,13,31,6.40
2018,01,21,13,32,6.40
2018,01,21,13,33,6.40
2018,01,21,13,34,6.40
2018,01,21,13,35,8.10
2018,01,21,13,36,8.10
2018,01,21,13,37,6.40
2018,01,21,13,38,6.40
2018,01,21,13,39,11.30
2018,01,21,13,40,12.90
2018,01,21,13,41,11.30
2018,01,21,13,42,6.40
2018,01,21,13,43,1.60
2018,01,21,13,44,6.40
2018,01,21,13,45,4.80
2018,01,21,13,46,4.80
2018,01,21,13,47,4.80
2018,01,21,13,48,9.60
2018,01,21,13,49,4.80
2018,01,21,13,50,4.80
2018,01,21,13,51,14.50
2018,01,21,13,52,11.30
2018,01,21,13,53,9.60
2018,01,21,13,54,4.80
2018,01,21,13,55,4.80
2018,01,21,13,56,6.40
2018,01,21,13,57,4.80
2018,01,21,13,58,11.30
2018,01,21,13,59,9.60
2018,01,21,14,00,6.40
2018,01,21,14,01,4.80
2018,01,21,14,02,8.10
2018,01,21,14,03,4.80
2018,01,21,14,04,17.70
2018,01,21,14,05,9.60
2018,01,21,14,06,6.40
2018,01,21,14,07,6.40
2018,01,21,14,08,14.50
2018,01,21,14,09,11.30
2018,01,21,14,10,20.90
2018,01,21,14,11,11.30
2018,01,21,14,12,4.80
2018,01,21,14,13,6.40
2018,01,21,14,14,6.40
2018,01,21,14,15,3.20
2018,01,21,14,16,4.80
2018,01,21,14,17,19.30
2018,01,21,14,18,14.50
2018,01,21,14,19,9.60
2018,01,21,14,20,4.80
2018,01,21,14,21,4.80
2018,01,21,14,22,9.60
2018,01,21,14,23,3.20
2018,01,21,14,24,4.80
2018,01,21,14,25,8.10
2018,01,21,14,26,3.20
2018,01,21,14,27,4.80
2018,01,21,14,28,6.40
2018,01,21,14,29,6.40
2018,01,21,14,30,11.30
2018,01,21,14,31,17.70
2018,01,21,14,32,16.10
2018,01,21,14,33,12.90
2018,01,21,14,34,6.40
2018,01,21,14,35,3.20
2018,01,21,14,36,8.10
2018,01,21,14,37,6.40
2018,01,21,14,38,6.40
2018,01,21,14,39,6.40
2018,01,21,14,40,8.10
2018,01,21,14,41,12.90
2018,01,21,14,42,11.30
2018,01,21,14,43,14.50
2018,01,21,14,44,14.50
2018,01,21,14,45,14.50
2018,01,21,14,46,11.30
2018,01,21,14,47,14.50
2018,01,21,14,48,9.60
2018,01,21,14,49,16.10
2018,01,21,14,50,9.60
2018,01,21,14,51,9.60
2018,01,21,14,52,4.80
2018,01,21,14,53,4.80
2018,01,21,14,54,6.40
2018,01,21,14,55,9.60
2018,01,21,14,56,11.30
2018,01,21,14,57,9.60
2018,01,21,14,58,6.40
2018,01,21,14,59,11.30
2018,01,21,15,00,9.60
2018,01,21,15,01,12.90
2018,01,21,15,02,14.50
2018,01,21,15,03,12.90
2018,01,21,15,04,12.90
2018,01,21,15,05,6.40
2018,01,21,15,06,4.80
2018,01,21,15,07,6.40
2018,01,21,15,08,8.10
2018,01,21,15,09,6.40
2018,01,21,15,10,11.30
2018,01,21,15,11,6.40
2018,01,21,15,12,14.50
2018,01,21,15,13,4.80
2018,01,21,15,14,6.40
2018,01,21,15,15,16.10
2018,01,21,15,16,17.70
2018,01,21,15,17,6.40
2018,01,21,15,18,8.10
2018,01,21,15,19,8.10
2018,01,21,15,20,8.10
2018,01,21,15,21,4.80
2018,01,21,15,22,3.20
2018,01,21,15,23,16.10
2018,01,21,15,24,8.10
2018,01,21,15,25,4.80
2018,01,21,15,26,3.20
2018,01,21,15,27,14.50
2018,01,21,15,28,14.50
2018,01,21,15,29,14.50
2018,01,21,15,30,6.40
2018,01,21,15,31,6.40
2018,01,21,15,32,11.30
2018,01,21,15,33,4.80
2018,01,21,15,34,11.30
2018,01,21,15,35,16.10
2018,01,21,15,36,20.90
2018,01,21,15,37,16.10
2018,01,21,15,38,12.90
2018,01,21,15,39,3.20
2018,01,21,15,40,6.40
2018,01,21,15,41,4.80
2018,01,21,15,42,1.60
2018,01,21,15,43,4.80
2018,01,21,15,44,9.60
2018,01,21,15,45,6.40
2018,01,21,15,46,1.60
2018,01,21,15,47,3.20
2018,01,21,15,48,3.20
2018,01,21,15,49,3.20
2018,01,21,15,50,6.40
2018,01,21,15,51,4.80
2018,01,21,15,52,4.80
2018,01,21,15,53,9.60
2018,01,21,15,54,6.40
2018,01,21,15,55,6.40
2018,01,21,15,56,12.90
2018,01,21,15,57,6.40
2018,01,21,15,58,3.20
2018,01,21,15,59,3.20
2018,01,21,16,00,4.80
2018,01,21,16,01,9.60
2018,01,21,16,02,6.40
2018,01,21,16,03,3.20
2018,01,21,16,04,6.40
2018,01,21,16,05,3.20
2018,01,21,16,06,3.20
2018,01,21,16,07,3.20
2018,01,21,16,08,4.80
2018,01,21,16,09,3.20
2018,01,21,16,10,6.40
2018,01,21,16,11,6.40
2018,01,21,16,12,6.40
2018,01,21,16,13,3.20
2018,01,21,16,14,4.80
2018,01,21,16,15,6.40
2018,01,21,16,16,9.60
2018,01,21,16,17,6.40
2018,01,21,16,18,3.20
2018,01,21,16,19,3.20
2018,01,21,16,20,9.60
2018,01,21,16,21,6.40
2018,01,21,16,22,6.40
2018,01,21,16,23,3.20
2018,01,21,16,24,3.20
2018,01,21,16,25,3.20
2018,01,21,16,26,4.80
2018,01,21,16,27,4.80
2018,01,21,16,28,3.20
2018,01,21,16,29,1.60
2018,01,21,16,30,1.60
2018,01,21,16,32,3.20
2018,01,21,16,33,9.60
2018,01,21,16,34,11.30
2018,01,21,16,35,3.20
2018,01,21,16,36,3.20
2018,01,21,16,37,3.20
2018,01,21,16,38,4.80
2018,01,21,16,39,6.40
2018,01,21,16,40,3.20
2018,01,21,16,41,4.80
2018,01,21,16,42,4.80
2018,01,21,16,43,4.80
2018,01,21,16,44,3.20
2018,01,21,16,45,3.20
2018,01,21,16,46,3.20
2018,01,21,16,47,3.20
2018,01,21,16,48,6.40
2018,01,21,16,49,6.40
2018,01,21,16,50,8.10
2018,01,21,16,51,4.80
2018,01,21,16,52,4.80
2018,01,21,16,53,3.20
2018,01,21,16,54,1.60
2018,01,21,16,55,6.40
2018,01,21,16,56,6.40
2018,01,21,16,57,4.80
2018,01,21,16,58,3.20
2018,01,21,16,59,4.80
2018,01,21,17,00,8.10
2018,01,21,17,01,4.80
2018,01,21,17,02,6.40
2018,01,21,17,03,8.10
2018,01,21,17,04,4.80
2018,01,21,17,05,6.40
2018,01,21,17,06,3.20
2018,01,21,17,07,3.20
2018,01,21,17,08,4.80
2018,01,21,17,09,3.20
2018,01,21,17,10,4.80
2018,01,21,17,11,3.20
2018,01,21,17,12,4.80
2018,01,21,17,13,6.40
2018,01,21,17,14,8.10
2018,01,21,17,15,8.10
2018,01,21,17,16,8.10
2018,01,21,17,17,1.60
2018,01,21,17,18,3.20
2018,01,21,17,19,3.20
2018,01,21,17,20,4.80
2018,01,21,17,21,4.80
2018,01,21,17,22,3.20
2018,01,21,17,23,4.80
2018,01,21,17,24,4.80
2018,01,21,17,25,4.80
2018,01,21,17,26,8.10
2018,01,21,17,27,6.40
2018,01,21,17,28,8.10
2018,01,21,17,29,6.40
2018,01,21,17,30,8.10
2018,01,21,17,31,8.10
2018,01,21,17,32,4.80
2018,01,21,17,33,4.80
2018,01,21,17,34,9.60
2018,01,21,17,35,8.10
2018,01,21,17,36,4.80
2018,01,21,17,37,4.80
2018,01,21,17,38,3.20
2018,01,21,17,39,3.20
2018,01,21,17,40,3.20
2018,01,21,17,41,6.40
2018,01,21,17,42,6.40
2018,01,21,17,43,4.80
2018,01,21,17,44,3.20
2018,01,21,17,45,9.60
2018,01,21,17,46,11.30
2018,01,21,17,47,8.10
2018,01,21,17,48,3.20
2018,01,21,17,49,3.20
2018,01,21,17,50,3.20
2018,01,21,17,51,9.60
2018,01,21,17,52,8.10
2018,01,21,17,53,6.40
2018,01,21,17,54,9.60
2018,01,21,17,55,8.10
2018,01,21,17,56,8.10
2018,01,21,17,57,8.10
2018,01,21,17,58,6.40
2018,01,21,17,59,8.10
2018,01,21,18,00,3.20
2018,01,21,18,01,8.10
2018,01,21,18,02,9.60
2018,01,21,18,03,12.90
2018,01,21,18,04,8.10
2018,01,21,18,05,8.10
2018,01,21,18,06,6.40
2018,01,21,18,07,8.10
2018,01,21,18,08,8.10
2018,01,21,18,09,3.20
2018,01,21,18,10,6.40
2018,01,21,18,11,6.40
2018,01,21,18,12,3.20
2018,01,21,18,13,6.40
2018,01,21,18,14,8.10
2018,01,21,18,15,8.10
2018,01,21,18,16,3.20
2018,01,21,18,17,4.80
2018,01,21,18,18,6.40
2018,01,21,18,19,6.40
2018,01,21,18,20,8.10
2018,01,21,18,21,8.10
2018,01,21,18,22,6.40
2018,01,21,18,23,8.10
2018,01,21,18,24,4.80
2018,01,21,18,25,3.20
2018,01,21,18,26,3.20
2018,01,21,18,27,4.80